�������l�o���
Date,Time,MP-1(��Sv/h),MP-2(��Sv/h),MP-3(��Sv/h),MP-4(��Sv/h),MP-5(��Sv/h),MP-6(��Sv/h),MP-7(��Sv/h),MP-8(��Sv/h),����,����(m/s),���J
2019/08/18,00:00,0.783,1.105,0.770,1.367,1.011,0.434,0.761,0.716,�k��,5.0,��
2019/08/18,00:10,0.785,1.108,0.771,1.371,1.011,0.435,0.761,0.716,�k��,4.5,��
2019/08/18,00:20,0.782,1.108,0.768,1.367,1.012,0.436,0.762,0.717,�k��,4.7,��
2019/08/18,00:30,0.782,1.108,0.770,1.368,1.012,0.435,0.762,0.716,�k��,5.3,��
2019/08/18,00:40,0.783,1.108,0.767,1.368,1.014,0.434,0.763,0.717,�k��,5.5,��
2019/08/18,00:50,0.785,1.109,0.769,1.370,1.012,0.437,0.763,0.716,�k��,5.0,��
2019/08/18,01:00,0.784,1.108,0.767,1.369,1.011,0.435,0.761,0.716,�k��,5.4,��
2019/08/18,01:10,0.784,1.109,0.769,1.370,1.012,0.435,0.761,0.716,�k��,5.0,��
2019/08/18,01:20,0.783,1.106,0.770,1.370,1.013,0.435,0.761,0.716,���k��,4.8,��
2019/08/18,01:30,0.783,1.109,0.769,1.369,1.010,0.435,0.762,0.715,�k��,4.0,��
2019/08/18,01:40,0.781,1.107,0.766,1.371,1.012,0.436,0.763,0.715,���k��,3.0,��
2019/08/18,01:50,0.783,1.109,0.767,1.370,1.012,0.435,0.762,0.716,�k��,1.7,��
2019/08/18,02:00,0.782,1.108,0.768,1.367,1.011,0.436,0.761,0.716,�k�k��,1.1,��
2019/08/18,02:10,0.784,1.108,0.769,1.369,1.012,0.434,0.762,0.716,�k�k��,1.7,��
2019/08/18,02:20,0.785,1.109,0.770,1.373,1.012,0.434,0.763,0.716,�k,4.1,��
2019/08/18,02:30,0.784,1.110,0.768,1.371,1.011,0.434,0.764,0.717,�k,4.6,��
2019/08/18,02:40,0.781,1.108,0.769,1.371,1.010,0.435,0.762,0.715,�k,5.9,��
2019/08/18,02:50,0.783,1.107,0.769,1.369,1.012,0.435,0.762,0.716,�k,6.2,��
2019/08/18,03:00,0.781,1.109,0.767,1.371,1.012,0.435,0.762,0.718,�k,7.5,��
2019/08/18,03:10,0.781,1.111,0.767,1.372,1.009,0.435,0.763,0.716,�k,7.1,��
2019/08/18,03:20,0.780,1.107,0.769,1.371,1.010,0.435,0.762,0.716,�k,6.4,��
2019/08/18,03:30,0.781,1.107,0.768,1.371,1.011,0.435,0.761,0.717,�k,5.9,��
2019/08/18,03:40,0.781,1.108,0.767,1.370,1.012,0.437,0.762,0.715,�k,5.6,��
2019/08/18,03:50,0.783,1.107,0.766,1.368,1.013,0.436,0.761,0.715,�k,5.3,��
2019/08/18,04:00,0.783,1.108,0.768,1.372,1.011,0.436,0.762,0.715,�k,4.8,��
2019/08/18,04:10,0.781,1.109,0.769,1.369,1.012,0.435,0.760,0.716,�k,4.3,��
2019/08/18,04:20,0.781,1.110,0.767,1.370,1.011,0.436,0.762,0.716,�k�k��,4.1,��
2019/08/18,04:30,0.780,1.107,0.769,1.368,1.012,0.435,0.762,0.716,�k,4.1,��
2019/08/18,04:40,0.781,1.107,0.768,1.372,1.011,0.434,0.761,0.716,�k,3.7,��
2019/08/18,04:50,0.783,1.107,0.769,1.370,1.013,0.434,0.763,0.717,�k�k��,3.8,��
2019/08/18,05:00,0.782,1.107,0.769,1.371,1.011,0.434,0.762,0.717,�k,3.0,��
2019/08/18,05:10,0.781,1.109,0.767,1.370,1.013,0.434,0.762,0.717,�k�k��,2.6,��
2019/08/18,05:20,0.780,1.107,0.768,1.367,1.012,0.435,0.762,0.717,�k�k��,2.8,��
2019/08/18,05:30,0.781,1.108,0.769,1.371,1.010,0.434,0.761,0.717,�k�k��,3.0,��
2019/08/18,05:40,0.781,1.109,0.769,1.371,1.010,0.437,0.761,0.716,�k�k��,3.3,��
2019/08/18,05:50,0.780,1.107,0.768,1.371,1.013,0.435,0.762,0.714,�k�k��,2.6,��
2019/08/18,06:00,0.779,1.105,0.766,1.371,1.010,0.434,0.760,0.716,�k�k��,3.2,��
2019/08/18,06:10,0.780,1.107,0.768,1.370,1.011,0.436,0.763,0.717,�k�k��,2.6,��
2019/08/18,06:20,0.781,1.109,0.769,1.371,1.010,0.434,0.761,0.716,�k�k��,2.5,��
2019/08/18,06:30,0.783,1.108,0.768,1.369,1.012,0.436,0.761,0.715,�k�k��,3.3,��
2019/08/18,06:40,0.781,1.110,0.768,1.372,1.011,0.434,0.762,0.716,�k,2.3,��
2019/08/18,06:50,0.780,1.106,0.770,1.370,1.011,0.435,0.762,0.713,�k,2.8,��
2019/08/18,07:00,0.780,1.109,0.768,1.372,1.011,0.435,0.761,0.717,�k�k��,2.8,�L
2019/08/18,07:10,0.782,1.106,0.767,1.368,1.013,0.437,0.762,0.716,�k�k��,3.3,�L
2019/08/18,07:20,0.782,1.107,0.769,1.369,1.009,0.435,0.759,0.716,�k,3.0,�L
2019/08/18,07:30,0.782,1.107,0.769,1.369,1.010,0.436,0.762,0.716,�k,2.5,�L
2019/08/18,07:40,0.782,1.107,0.769,1.369,1.012,0.437,0.763,0.716,�k,2.5,�L
2019/08/18,07:50,0.783,1.111,0.771,1.371,1.012,0.437,0.762,0.715,�k�k��,1.2,�L
2019/08/18,08:00,0.784,1.109,0.769,1.369,1.009,0.437,0.762,0.716,�k�k��,1.1,��
2019/08/18,08:10,0.782,1.107,0.771,1.371,1.012,0.436,0.760,0.714,�k,3.5,�L
2019/08/18,08:20,0.783,1.108,0.769,1.370,1.009,0.434,0.761,0.716,�k�k��,3.3,�L
2019/08/18,08:30,0.779,1.107,0.769,1.369,1.010,0.434,0.761,0.715,�k�k��,3.9,�L
2019/08/18,08:40,0.781,1.111,0.768,1.371,1.010,0.434,0.762,0.716,�k��,3.0,��
2019/08/18,08:50,0.781,1.107,0.768,1.370,1.011,0.435,0.761,0.716,�k��,2.5,��
2019/08/18,09:00,0.781,1.109,0.767,1.369,1.009,0.433,0.759,0.718,�k��,2.9,��
2019/08/18,09:10,0.779,1.105,0.768,1.368,1.012,0.435,0.761,0.715,�k��,3.4,��
2019/08/18,09:20,0.781,1.107,0.768,1.370,1.009,0.434,0.763,0.715,�k��,3.3,��
2019/08/18,09:30,0.780,1.108,0.766,1.368,1.009,0.434,0.762,0.713,�k�k��,3.1,��
2019/08/18,09:40,0.779,1.105,0.767,1.370,1.010,0.435,0.761,0.715,�k,2.6,�L
2019/08/18,09:50,0.780,1.106,0.767,1.369,1.011,0.436,0.762,0.714,�k�k��,3.7,��
2019/08/18,10:00,0.781,1.106,0.768,1.372,1.010,0.433,0.763,0.715,�k�k��,3.7,��
2019/08/18,10:10,0.780,1.105,0.768,1.370,1.011,0.434,0.761,0.715,�k,3.0,��
2019/08/18,10:20,0.783,1.107,0.769,1.372,1.011,0.435,0.761,0.716,�k�k��,1.7,��
2019/08/18,10:30,0.782,1.109,0.767,1.370,1.009,0.434,0.761,0.715,�k�k��,1.7,��
2019/08/18,10:40,0.783,1.107,0.769,1.370,1.011,0.435,0.761,0.716,�k��,2.0,��
2019/08/18,10:50,0.782,1.108,0.768,1.370,1.011,0.433,0.760,0.716,�k��,1.1,��
2019/08/18,11:00,0.782,1.099,0.770,1.369,1.011,0.436,0.762,0.718,�k�k��,1.2,��
2019/08/18,11:10,0.783,1.099,0.768,1.370,1.012,0.435,0.762,0.718,�k��,1.4,��
2019/08/18,11:20,0.781,1.102,0.768,1.372,1.010,0.437,0.762,0.718,�k�k��,1.2,��
2019/08/18,11:30,0.782,1.105,0.768,1.371,1.012,0.435,0.763,0.717,�k��,1.7,��
2019/08/18,11:40,0.782,1.107,0.769,1.371,1.013,0.434,0.762,0.719,��,1.1,��
2019/08/18,11:50,0.782,1.107,0.769,1.369,1.011,0.435,0.762,0.717,�k�k��,0.8,��
2019/08/18,12:00,0.782,1.106,0.768,1.372,1.012,0.435,0.763,0.716,�k��,1.5,��
2019/08/18,12:10,0.781,1.106,0.769,1.371,1.009,0.435,0.761,0.715,���k��,1.1,��
2019/08/18,12:20,0.781,1.106,0.765,1.371,1.012,0.434,0.760,0.716,��,1.7,��
2019/08/18,12:30,0.782,1.107,0.766,1.373,1.012,0.434,0.760,0.714,��,2.3,��
2019/08/18,12:40,0.780,1.108,0.768,1.374,1.011,0.433,0.761,0.715,���쓌,2.0,��
2019/08/18,12:50,0.781,1.108,0.765,1.376,1.014,0.433,0.760,0.713,��,1.7,��
2019/08/18,13:00,0.782,1.106,0.767,1.372,1.014,0.433,0.761,0.714,��,2.3,��
2019/08/18,13:10,0.784,1.108,0.767,1.372,1.013,0.435,0.761,0.715,��,3.1,��
2019/08/18,13:20,0.783,1.108,0.769,1.372,1.012,0.433,0.759,0.715,���k��,2.5,��
2019/08/18,13:30,0.781,1.109,0.767,1.373,1.014,0.434,0.761,0.716,��,2.9,��
2019/08/18,13:40,0.782,1.111,0.768,1.372,1.016,0.433,0.763,0.717,��,2.8,��
2019/08/18,13:50,0.782,1.108,0.768,1.372,1.013,0.432,0.761,0.714,�쓌,3.0,��
2019/08/18,14:00,0.783,1.110,0.770,1.374,1.014,0.433,0.762,0.714,�쓌,3.6,��
2019/08/18,14:10,0.781,1.108,0.768,1.374,1.016,0.433,0.761,0.715,�쓌,3.5,��
2019/08/18,14:20,0.782,1.109,0.769,1.375,1.013,0.434,0.761,0.715,�쓌,3.2,��
2019/08/18,14:30,0.782,1.110,0.771,1.376,1.016,0.433,0.763,0.715,�쓌,2.6,��
2019/08/18,14:40,0.784,1.110,0.769,1.370,1.017,0.434,0.760,0.716,�쓌,3.1,��
2019/08/18,14:50,0.783,1.108,0.772,1.371,1.014,0.434,0.761,0.718,���쓌,1.7,��
2019/08/18,15:00,0.782,1.112,0.769,1.374,1.017,0.435,0.762,0.716,�쓌,1.7,��
2019/08/18,15:10,0.782,1.112,0.771,1.370,1.017,0.434,0.763,0.719,�쓌,2.6,��
2019/08/18,15:20,0.782,1.110,0.773,1.370,1.015,0.433,0.763,0.717,�쓌,3.1,��
2019/08/18,15:30,0.783,1.112,0.770,1.370,1.015,0.435,0.765,0.718,���쓌,3.0,��
2019/08/18,15:40,0.784,1.111,0.771,1.372,1.015,0.435,0.762,0.716,�쓌,3.6,��
2019/08/18,15:50,0.782,1.110,0.773,1.372,1.015,0.434,0.764,0.716,�쓌,3.6,��
2019/08/18,16:00,0.784,1.111,0.769,1.371,1.014,0.435,0.765,0.716,��쓌,3.6,��
2019/08/18,16:10,0.784,1.111,0.771,1.373,1.015,0.434,0.763,0.715,�쓌,4.8,��
2019/08/18,16:20,0.784,1.112,0.769,1.373,1.015,0.434,0.764,0.717,�쓌,5.5,��
2019/08/18,16:30,0.782,1.112,0.768,1.373,1.015,0.434,0.763,0.714,�쓌,5.4,��
2019/08/18,16:40,0.783,1.113,0.772,1.374,1.017,0.433,0.762,0.716,�쓌,5.3,��
2019/08/18,16:50,0.783,1.112,0.770,1.374,1.015,0.435,0.762,0.714,��쓌,6.1,��
2019/08/18,17:00,0.782,1.111,0.770,1.375,1.014,0.433,0.761,0.717,�쓌,5.8,��
2019/08/18,17:10,0.781,1.109,0.771,1.374,1.016,0.435,0.762,0.716,�쓌,5.5,��
2019/08/18,17:20,0.781,1.110,0.770,1.374,1.014,0.434,0.762,0.716,�쓌,5.0,��
2019/08/18,17:30,0.783,1.109,0.768,1.375,1.014,0.433,0.761,0.714,�쓌,4.9,��
2019/08/18,17:40,0.783,1.111,0.769,1.375,1.014,0.430,0.762,0.714,��쓌,4.7,��
2019/08/18,17:50,0.781,1.110,0.767,1.373,1.014,0.434,0.764,0.717,��,4.3,��
2019/08/18,18:00,0.782,1.111,0.771,1.374,1.014,0.434,0.762,0.715,��,4.5,��
2019/08/18,18:10,0.784,1.110,0.769,1.373,1.013,0.433,0.762,0.716,��,5.0,��
2019/08/18,18:20,0.781,1.109,0.769,1.375,1.014,0.434,0.763,0.714,��,4.8,��
2019/08/18,18:30,0.784,1.111,0.769,1.371,1.015,0.434,0.762,0.717,��,4.6,��
2019/08/18,18:40,0.782,1.108,0.768,1.374,1.013,0.434,0.760,0.717,��,4.4,��
2019/08/18,18:50,0.783,1.111,0.768,1.373,1.015,0.434,0.762,0.717,��쐼,4.3,��
2019/08/18,19:00,0.783,1.112,0.770,1.373,1.015,0.432,0.761,0.716,��쐼,4.3,��
2019/08/18,19:10,0.783,1.112,0.767,1.374,1.015,0.433,0.763,0.716,��쐼,4.3,��
2019/08/18,19:20,0.780,1.109,0.768,1.371,1.013,0.434,0.763,0.715,��쐼,4.1,��
2019/08/18,19:30,0.782,1.110,0.768,1.374,1.018,0.435,0.761,0.716,��쐼,3.8,��
2019/08/18,19:40,0.783,1.111,0.768,1.374,1.017,0.435,0.760,0.715,��쐼,4.1,��
2019/08/18,19:50,0.783,1.111,0.770,1.373,1.015,0.433,0.760,0.717,��,3.7,��
2019/08/18,20:00,0.783,1.113,0.768,1.374,1.015,0.434,0.761,0.715,��,3.0,��
2019/08/18,20:10,0.783,1.110,0.771,1.374,1.016,0.435,0.761,0.717,��쐼,3.6,��
2019/08/18,20:20,0.784,1.111,0.771,1.377,1.016,0.434,0.760,0.716,��,3.8,��
2019/08/18,20:30,0.782,1.111,0.771,1.375,1.015,0.435,0.762,0.717,��,3.3,��
2019/08/18,20:40,0.783,1.112,0.768,1.376,1.015,0.433,0.761,0.716,��,2.9,��
2019/08/18,20:50,0.782,1.113,0.769,1.375,1.014,0.435,0.762,0.717,��,2.5,��
2019/08/18,21:00,0.781,1.110,0.770,1.375,1.015,0.433,0.761,0.716,��쐼,2.0,��
2019/08/18,21:10,0.783,1.112,0.770,1.375,1.016,0.434,0.763,0.717,��쐼,1.9,��
2019/08/18,21:20,0.782,1.112,0.771,1.375,1.016,0.435,0.760,0.715,��쓌,0.9,��
2019/08/18,21:30,0.783,1.114,0.771,1.377,1.015,0.434,0.762,0.716,�쓌,0.9,��
2019/08/18,21:40,0.784,1.110,0.770,1.375,1.014,0.435,0.762,0.718,��쓌,1.1,��
2019/08/18,21:50,0.781,1.112,0.770,1.376,1.016,0.433,0.762,0.715,�쓌,0.8,��
2019/08/18,22:00,0.782,1.110,0.769,1.378,1.016,0.435,0.761,0.714,�쓌,1.1,��
2019/08/18,22:10,0.783,1.111,0.768,1.377,1.014,0.434,0.763,0.716,��쓌,0.8,��
2019/08/18,22:20,0.783,1.111,0.769,1.374,1.015,0.435,0.761,0.716,-,CALM,��
2019/08/18,22:30,0.782,1.110,0.769,1.376,1.015,0.435,0.761,0.718,�쓌,0.8,��
2019/08/18,22:40,0.782,1.114,0.770,1.377,1.014,0.435,0.761,0.714,-,CALM,��
2019/08/18,22:50,0.782,1.113,0.771,1.375,1.015,0.433,0.762,0.717,�k�k��,1.1,��
2019/08/18,23:00,0.783,1.112,0.770,1.376,1.012,0.435,0.762,0.716,�k,1.2,��
2019/08/18,23:10,0.782,1.112,0.770,1.375,1.015,0.435,0.761,0.714,�k�k��,1.5,��
2019/08/18,23:20,0.783,1.113,0.770,1.375,1.014,0.434,0.761,0.714,�k��,1.5,��
2019/08/18,23:30,0.784,1.113,0.770,1.378,1.016,0.434,0.761,0.716,�k�k��,2.6,��
2019/08/18,23:40,0.782,1.114,0.771,1.377,1.015,0.434,0.760,0.717,�k,3.1,��
2019/08/18,23:50,0.783,1.111,0.771,1.378,1.015,0.434,0.762,0.715,�k,3.1,��
